Change the Weather History Date:

Wednesday, August 7, 2013

  Actual Average Record
Temperature  
Mean Temperature 68 °F -  
Max Temperature 75 °F 80 °F 95 °F (2001)
Min Temperature 61 °F 58 °F 42 °F (1976)
Cooling Degree Days 3    
Growing Degree Days 18 (Base 50)    
Moisture  
Dew Point 62 °F    
Average Humidity 79    
Maximum Humidity 90    
Minimum Humidity 62    
Precipitation  
Precipitation 0.41 in - - ()
Sea Level Pressure  
Sea Level Pressure 29.85 in    
Wind  
Wind Speed 9 mph (WNW)    
Max Wind Speed 20 mph    
Max Gust Speed 28 mph    
Visibility 10 miles    
Events Rain    
Averages and records for this station are not official NWS values.
T = Trace of Precipitation, MM = Missing Value Source: NWS Daily Summary

Daily Weather History Graph

Daily Weather History Graph

Search for Another Location

Airport or City:

Trip Planner

Search our weather history database for the weather conditions in past years. The results will help you decide how hot, cold, wet, or windy it might be!

Date:

Astronomy

Aug. 07, 2013 Rise Set
Actual Time 6:40 AM EDT 9:01 PM EDT
Civil Twilight 6:08 AM EDT 9:33 PM EDT
Nautical Twilight 5:28 AM EDT 10:12 PM EDT
Astronomical Twilight 4:43 AM EDT 10:57 PM EDT
Moon 7:32 AM EDT (8/7) 9:03 PM EDT (8/7)
Length of Visible Light 15h 24m
Length of Day
14h 20m
New Moon, 1% of the Moon is Illuminated
Aug 7
New Moon
Aug 14
First Quarter
Aug 20
Full
Aug 28
Last Quarter
Sep 5
New

Hourly Weather History & Observations

Time (EDT) Temp. Dew Point Humidity Pressure Visibility Wind Dir Wind Speed Gust Speed Precip Events Conditions
12:15 AM 70.3 °F 65.8 °F 86% 29.82 in 7.0 mi South 6.9 mph - N/A   Mostly Cloudy
12:35 AM 70.3 °F 65.5 °F 85% 29.82 in 7.0 mi South 6.9 mph - N/A   Mostly Cloudy
12:47 AM 70.3 °F 65.5 °F 85% 29.82 in 7.0 mi South 6.9 mph - N/A   Mostly Cloudy
1:15 AM 70.3 °F 65.5 °F 85% 29.81 in 7.0 mi South 6.9 mph - N/A   Scattered Clouds
1:35 AM 71.1 °F 66.0 °F 84% 29.80 in 7.0 mi South 9.2 mph - N/A   Scattered Clouds
1:55 AM 75.0 °F 69.6 °F 83% 29.79 in 10.0 mi SSW 17.3 mph 27.6 mph N/A   Mostly Cloudy
2:15 AM 75.4 °F 70.0 °F 83% 29.79 in 10.0 mi SSW 17.3 mph 26.5 mph N/A   Scattered Clouds
2:35 AM 72.9 °F 68.0 °F 85% 29.79 in 7.0 mi SW 19.6 mph 26.5 mph N/A   Clear
2:55 AM 72.9 °F 68.0 °F 85% 29.81 in 7.0 mi SW 15.0 mph 24.2 mph N/A   Scattered Clouds
3:03 AM 71.6 °F 67.1 °F 86% 29.82 in 7.0 mi SW 15.0 mph 24.2 mph N/A   Scattered Clouds
3:35 AM 61.7 °F 57.6 °F 86% 29.85 in 3.0 mi West 8.1 mph 18.4 mph 0.22 in Rain Heavy Rain
3:55 AM 61.7 °F 58.1 °F 88% 29.84 in 10.0 mi West 6.9 mph - 0.27 in Rain Light Rain
4:15 AM 61.7 °F 58.1 °F 88% 29.85 in 10.0 mi SW 4.6 mph - 0.03 in Rain Rain
4:35 AM 61.7 °F 58.5 °F 89% 29.79 in 7.0 mi SSE 6.9 mph - 0.09 in Rain Heavy Rain
4:55 AM 61.7 °F 58.3 °F 89% 29.75 in 10.0 mi SSE 9.2 mph - 0.13 in Rain Light Rain
5:15 AM 61.7 °F 58.3 °F 89% 29.76 in 10.0 mi South 6.9 mph - N/A   Scattered Clouds
5:35 AM 61.7 °F 58.3 °F 89% 29.77 in 10.0 mi South 6.9 mph - N/A   Scattered Clouds
5:56 AM 62.8 °F 59.2 °F 88% 29.76 in 10.0 mi South 8.1 mph - 0.01 in Rain Light Rain
6:15 AM 63.7 °F 59.2 °F 85% 29.77 in 10.0 mi SW 12.7 mph 19.6 mph N/A Rain Light Rain
6:35 AM 65.3 °F 60.3 °F 84% 29.77 in 10.0 mi SSW 18.4 mph 24.2 mph N/A   Scattered Clouds
6:55 AM 65.3 °F 60.3 °F 84% 29.75 in 10.0 mi SSW 10.4 mph 17.3 mph N/A   Scattered Clouds
7:15 AM 65.3 °F 60.1 °F 83% 29.74 in 10.0 mi SW 11.5 mph 20.7 mph N/A   Clear
7:35 AM 65.3 °F 60.8 °F 85% 29.75 in 10.0 mi SW 6.9 mph 16.1 mph N/A   Clear
7:55 AM 68.0 °F 62.2 °F 82% 29.76 in 10.0 mi WSW 9.2 mph 18.4 mph N/A   Clear
8:15 AM 70.3 °F 64.6 °F 82% 29.77 in 10.0 mi WSW 9.2 mph - N/A   Clear
8:35 AM 70.3 °F 64.6 °F 82% 29.77 in 10.0 mi West 9.2 mph - N/A   Clear
8:55 AM 70.3 °F 64.6 °F 82% 29.79 in 10.0 mi West 9.2 mph - N/A   Clear
9:15 AM 70.3 °F 64.4 °F 81% 29.79 in 10.0 mi WNW 8.1 mph - N/A   Clear
9:35 AM 70.3 °F 63.9 °F 80% 29.79 in 10.0 mi West 8.1 mph - N/A   Clear
9:55 AM 70.3 °F 63.5 °F 79% 29.81 in 10.0 mi West 8.1 mph - N/A   Clear
10:05 AM 70.3 °F 63.5 °F 79% 29.81 in 10.0 mi West 8.1 mph - N/A   Clear
10:35 AM 70.3 °F 63.3 °F 78% 29.82 in 10.0 mi WNW 6.9 mph - N/A   Mostly Cloudy
10:55 AM 70.3 °F 63.1 °F 78% 29.83 in 10.0 mi WNW 8.1 mph - N/A   Scattered Clouds
11:15 AM 70.3 °F 63.7 °F 79% 29.84 in 10.0 mi WSW 10.4 mph - N/A   Mostly Cloudy
11:35 AM 70.3 °F 62.8 °F 77% 29.85 in 10.0 mi WSW 6.9 mph - N/A   Mostly Cloudy
11:55 AM 71.2 °F 62.8 °F 75% 29.85 in 10.0 mi West 8.1 mph - N/A   Scattered Clouds
12:15 PM 73.4 °F 64.6 °F 74% 29.85 in 10.0 mi West 10.4 mph - N/A   Mostly Cloudy
12:34 PM 71.6 °F 62.4 °F 73% 29.85 in 10.0 mi West 8.1 mph - N/A   Overcast
12:55 PM 71.6 °F 64.0 °F 77% 29.85 in 10.0 mi West 6.9 mph - N/A   Overcast
1:15 PM 70.5 °F 63.1 °F 77% 29.86 in 10.0 mi WNW 9.2 mph - N/A   Overcast
1:35 PM 72.0 °F 63.9 °F 76% 29.87 in 10.0 mi WNW 8.1 mph - N/A   Overcast
1:55 PM 72.9 °F 62.8 °F 71% 29.86 in 10.0 mi NW 8.1 mph - N/A   Scattered Clouds
2:15 PM 73.9 °F 63.0 °F 68% 29.87 in 10.0 mi WNW 8.1 mph - N/A   Clear
2:35 PM 75.4 °F 63.7 °F 67% 29.87 in 10.0 mi NNW 10.4 mph 16.1 mph N/A   Scattered Clouds
2:55 PM 75.4 °F 63.9 °F 67% 29.87 in 10.0 mi NNW 9.2 mph - N/A   Scattered Clouds
3:16 PM 74.1 °F 63.1 °F 68% 29.87 in 10.0 mi North 11.5 mph - N/A   Scattered Clouds
3:35 PM 73.4 °F 63.0 °F 70% 29.87 in 10.0 mi North 13.8 mph 17.3 mph N/A   Scattered Clouds
3:55 PM 73.8 °F 63.5 °F 70% 29.88 in 10.0 mi North 12.7 mph 17.3 mph N/A   Mostly Cloudy
4:15 PM 72.9 °F 62.4 °F 70% 29.88 in 10.0 mi North 9.2 mph 16.1 mph N/A   Scattered Clouds
4:35 PM 74.8 °F 63.3 °F 67% 29.89 in 10.0 mi North 11.5 mph - N/A   Scattered Clouds
4:55 PM 73.6 °F 62.1 °F 67% 29.89 in 10.0 mi NNW 9.2 mph 16.1 mph N/A   Scattered Clouds
5:15 PM 75.4 °F 62.4 °F 64% 29.88 in 10.0 mi NNW 6.9 mph - N/A   Clear
5:35 PM 75.4 °F 62.2 °F 64% 29.88 in 10.0 mi North 8.1 mph - N/A   Clear
5:56 PM 75.4 °F 61.3 °F 62% 29.88 in 10.0 mi NNW 10.4 mph - N/A   Clear
6:15 PM 75.4 °F 62.1 °F 63% 29.89 in 10.0 mi NNW 8.1 mph - N/A   Clear
6:20 PM 75.4 °F 62.4 °F 64% 29.89 in 10.0 mi North 5.8 mph - N/A   Clear
6:55 PM 72.9 °F 60.8 °F 66% 29.90 in 10.0 mi NNW 4.6 mph - N/A   Clear
7:15 PM 71.6 °F 59.9 °F 66% 29.90 in 10.0 mi NNW 8.1 mph - N/A   Clear
7:35 PM 70.3 °F 59.7 °F 69% 29.90 in 10.0 mi North 6.9 mph - N/A   Clear
7:55 PM 70.3 °F 60.4 °F 71% 29.91 in 10.0 mi North 5.8 mph - N/A   Clear
8:15 PM 70.3 °F 61.3 °F 73% 29.91 in 10.0 mi North 5.8 mph - N/A   Clear
8:34 PM 69.4 °F 61.7 °F 76% 29.92 in 10.0 mi North 5.8 mph - N/A   Clear
8:55 PM 65.3 °F 59.2 °F 81% 29.92 in 10.0 mi North 3.5 mph - N/A   Clear
9:15 PM 63.5 °F 58.6 °F 84% 29.93 in 10.0 mi Calm Calm - N/A   Clear
9:35 PM 62.8 °F 58.5 °F 86% 29.94 in 10.0 mi Calm Calm - N/A   Clear
9:55 PM 62.8 °F 59.0 °F 87% 29.95 in 10.0 mi Calm Calm - N/A   Clear
10:15 PM 61.9 °F 58.5 °F 89% 29.96 in 10.0 mi Calm Calm - N/A   Clear
10:35 PM 61.7 °F 58.3 °F 89% 29.97 in 10.0 mi Calm Calm - N/A   Clear
10:55 PM 61.7 °F 58.5 °F 89% - 7.0 mi North 3.5 mph - N/A   Clear
11:15 PM 61.2 °F 58.3 °F 90% 29.99 in 10.0 mi North 4.6 mph - N/A   Clear
11:35 PM 61.7 °F 58.6 °F 90% 29.99 in 10.0 mi NNE 3.5 mph - N/A   Clear
11:55 PM 61.7 °F 58.5 °F 89% 29.99 in 10.0 mi North 5.8 mph - N/A   Clear